#timestamp,LO_Frequency,Hit,StdDev 
1565564415.4,286047000.2,P
1565564435.2,286046998.6,N
1565564455.1,286047000.4,N
1565564456.0,286047000.4,N
1565564475.8,286046998.3,N
1565564495.6,286046998.4,N
1565564515.5,286046998.2,N
1565564535.3,286047000.4,N
1565564555.2,286046998.7,N
1565564575.9,286047001.5,N
1565564595.7,286047002.0,N
1565564615.6,286047002.7,N
1565564635.4,286047000.3,N
1565564655.2,286047000.4,N
1565564675.1,286046999.1,N
1565564676.0,286046999.1,N
1565564695.8,286046998.8,N
1565564715.7,286046999.3,N
1565564735.5,286046998.4,N
1565564755.3,286047000.4,N
1565564775.2,286047000.5,N
1565564795.0,286047000.1,N
1565564795.9,286047000.1,N
1565564815.8,286047000.4,N
1565564835.6,286047001.2,N
1565564855.4,286047000.4,N
1565564875.3,286047000.6,N
1565564895.1,286046998.3,N
1565564915.8,286046999.0,N
1565564935.7,286046999.4,N
1565564955.5,286047001.1,N
1565564975.4,286046998.1,N
1565564995.2,286046999.9,N
1565565015.0,286047002.7,N
1565565015.9,286047002.7,N
1565565035.8,286046998.2,N
1565565055.6,286046998.4,N
1565565075.5,286046998.3,N
1565565095.3,286046998.5,N
1565565115.1,286047001.1,N
1565565135.9,286047002.7,N
1565565155.7,286047002.4,N
1565565175.5,286047000.9,N
1565565195.4,286047000.0,N
1565565215.2,286047002.5,N
1565565235.1,286047001.5,N
1565565236.0,286047001.5,N
1565565255.8,286047002.1,N
1565565275.6,286047004.4,N
1565565295.5,286047001.9,N
1565565315.3,286047002.0,N
1565565335.2,286047004.3,N
1565565355.9,286047001.9,N
1565565375.7,286047003.6,N
1565565395.6,286047004.1,N
1565565415.4,286047001.5,N
1565565435.2,286047001.8,N
1565565455.1,286047001.8,N
1565565456.0,286047001.8,N
1565565475.8,286047001.8,N
1565565495.7,286047001.8,N
1565565515.5,286047002.1,N
1565565535.3,286047002.4,N
1565565555.2,286047001.8,N
1565565575.0,286047002.6,N
1565565575.9,286047002.6,N
1565565595.8,286046999.8,N
1565565615.6,286046999.8,N
1565565635.4,286047002.7,N
1565565655.3,286047000.1,N
1565565675.1,286047000.1,N
1565565695.9,286046999.8,N
1565565715.7,286047001.1,N
1565565735.5,286047001.2,N
1565565755.4,286046998.1,N
1565565775.2,286047001.1,N
1565565795.0,286046998.3,N
1565565796.0,286046998.3,N
1565565815.8,286046998.9,N
1565565835.1,286046998.6,N
1565565836.0,286046998.6,N
1565565855.8,286046998.2,N
1565565875.6,286046998.4,N
1565565895.5,286046999.1,N
1565565915.3,286046999.3,N
1565565935.2,286046998.9,N
1565565955.9,286046998.8,N
1565565975.7,286046998.6,N
1565565995.6,286046998.8,N
1565566015.4,286046998.5,N
1565566035.3,286046998.9,N
1565566055.1,286046998.4,N
1565566075.8,286046998.6,N
1565566095.7,286046998.8,N
1565566115.5,286046999.3,N
1565566135.4,286046999.4,N
1565566155.2,286046999.2,N
1565566175.0,286046996.5,Y
1565566175.9,286046996.5,P
1565566195.8,286046996.6,N
1565566215.6,286046999.6,N
1565566235.5,286046999.0,N
1565566255.3,286046999.3,N
1565566275.1,286046999.6,N
1565566295.9,286046998.9,N
1565566315.7,286046996.5,N
1565566335.5,286046996.7,N
1565566355.4,286046996.9,N
1565566375.2,286046999.3,N
1565566395.1,286046999.6,N
1565566396.0,286046999.6,N
1565566415.8,286046998.7,N
1565566435.6,286046999.4,N
1565566455.5,286046998.9,N
1565566475.3,286046997.1,N
1565566495.2,286046996.8,N
1565566515.9,286046999.6,N
1565566535.7,286046999.0,N
1565566555.6,286046999.0,N
1565566575.4,286046998.3,N
1565566595.2,286046999.2,N
1565566615.1,286046998.7,N
1565566616.0,286046998.7,N
1565566635.8,286046998.7,N
1565566655.7,286047001.1,N
1565566675.5,286047001.2,N
1565566695.3,286046998.5,N
1565566715.2,286046999.1,N
1565566735.0,286046998.8,N
1565566735.9,286046998.8,N
1565566755.8,286046998.2,N
1565566775.6,286046996.8,N
1565566795.4,286046997.7,N
1565566815.3,286046997.7,N
1565566835.1,286046997.6,N
1565566855.8,286046997.5,N
1565566875.7,286046997.4,N
1565566895.6,286046997.0,N
1565566915.4,286046997.1,N
1565566935.3,286046996.8,N
1565566955.1,286046999.1,N
1565566975.9,286046999.6,N
1565566995.0,286046999.2,N
1565566995.9,286046999.2,N
1565567015.8,286046999.0,N
1565567035.6,286046998.5,N
1565567055.5,286046998.7,N
1565567075.3,286046998.7,N
1565567095.1,286046998.7,N
1565567115.9,286046999.2,N
1565567135.7,286046997.6,N
1565567155.6,286046996.9,N
1565567175.4,286046997.4,N
1565567195.2,286046997.2,N
1565567215.1,286046999.0,N
1565567216.0,286046999.0,N
1565567235.8,286046998.6,N
1565567255.6,286046998.4,N
1565567275.5,286046997.0,Y
1565567295.3,286047001.2,P
1565567315.2,286046998.4,N
1565567335.9,286046997.1,N
1565567355.7,286046999.4,N
1565567375.6,286046999.4,N
1565567395.4,286046998.7,N
1565567415.3,286047001.2,N
1565567435.1,286047000.3,N
1565567436.0,286047000.3,N
1565567455.8,286046999.9,N
1565567475.7,286046999.7,N
1565567495.5,286046999.8,N
1565567515.3,286046999.8,N
1565567535.2,286047002.4,N
1565567555.0,286047002.2,N
1565567555.9,286047002.2,N
1565567575.8,286047000.2,N
1565567595.6,286047000.2,N
1565567615.4,286047002.7,N
1565567635.3,286047002.8,N
1565567655.1,286047001.9,N
1565567675.9,286047002.0,N
1565567695.7,286047002.2,N
1565567715.5,286047001.5,N
1565567735.4,286047002.2,N
1565567755.2,286047002.2,N
1565567775.0,286047002.4,N
1565567775.9,286047002.4,N
1565567795.8,286047000.3,N
1565567815.6,286047000.1,N
1565567835.5,286047000.5,N
1565567855.3,286047000.1,N
1565567875.1,286047001.8,N
1565567895.9,286047001.5,N
1565567915.7,286047002.7,N
1565567935.6,286047000.3,N
1565567955.4,286047002.1,N
1565567975.2,286047000.1,N
1565567995.1,286047002.5,N
1565567996.0,286047002.5,N
